Tracking 23726 objects as of 22-Sep-2021
HD Live streaming from Space Station
objects crossing your sky now

STARLINK-1532

Track STARLINK-1532 now!
10-day predictions
STARLINK-1532 is classified as:


NORAD ID: 46068
Int'l Code: 2020-055AT
Perigee: 553.3 km
Apogee: 555.5 km
Inclination: 53.1 °
Period: 95.6 minutes
Semi major axis: 6925 km
RCS: Unknown
Launch date: August 7, 2020
Source: United States (US)
Launch site: AIR FORCE EASTERN TEST RANGE (AFETR)
aabbcc
Your satellite tracking list
Your tracking list is empty




NASA's NSSDC Master Catalog

Two Line Element Set (TLE):
1 46068U 20055AT  21264.57711236 -.00000612  00000-0 -22214-4 0  9999
2 46068  53.0523 214.4858 0001577  65.9688 294.1466 15.06393731 63614
Source of the keplerian elements: AFSPC